DateTimeUTC,F1_A11,F1_S11,BsB_S11,BsG_S11,BsR_S11,BbsB_S11,BbsG_S11,BbsR_S11,BaB_A11,BaG_A11,BaR_A11,Tu_S11,T_S11,Uu_S11,U_S11,P_S11,T1_A11
2021-12-01T11:00:00Z,00000200,21000000,,,,,,,-000.02,-000.13,-000.22,20.2,27.4,,00.0,0639.7,30.9
2021-12-01T11:01:00Z,00000200,21000000,,,,,,,0000.08,-000.05,-000.21,20.1,27.4,,00.0,0639.8,30.9
2021-12-01T11:02:00Z,00000200,21000000,,,,,,,-000.06,0000.26,0000.30,20.1,27.3,,00.0,0639.8,30.9
2021-12-01T11:03:00Z,00000200,61000000,,,,,,,0000.24,-000.07,0000.20,20.1,27.3,,00.0,0639.8,30.9
2021-12-01T11:04:00Z,00000200,41000000,0000.18,0000.19,0000.27,-000.23,0000.08,0000.29,0000.25,0000.38,0000.11,20.1,27.0,,00.0,0640.4,30.9
2021-12-01T11:05:00Z,00000200,01000000,0001.58,0000.28,0000.12,-000.09,-000.19,0000.49,0000.11,0000.42,0000.09,20.2,27.0,,00.0,0640.5,30.9
2021-12-01T11:06:00Z,00000200,01000000,0000.42,0000.00,0000.40,0000.85,0000.08,0000.38,0000.23,-000.05,0000.28,20.2,26.9,,00.0,0640.4,31.0
2021-12-01T11:07:00Z,00000200,01000000,0000.28,0000.20,0000.31,0000.20,0000.14,0000.17,0000.34,-000.07,0000.25,20.2,26.9,,00.0,0640.4,30.9
2021-12-01T11:08:00Z,00000200,01000000,0000.63,0000.21,0000.55,0000.73,0000.47,0000.49,-000.15,0000.15,-000.03,20.3,26.9,,00.0,0640.4,31.0
2021-12-01T11:09:00Z,00000200,01000000,0000.29,0000.07,0000.13,-000.33,0000.15,0000.53,0000.12,0000.06,0000.03,20.3,26.9,,00.0,0640.4,31.0
2021-12-01T11:10:00Z,00000200,01000000,0001.33,0000.61,0000.29,0000.36,-000.05,0000.31,-000.11,-000.32,-000.17,20.3,26.9,,00.0,0640.4,31.0
2021-12-01T11:11:00Z,00000200,01000000,0000.90,0000.06,-000.12,0000.38,-000.25,0000.37,0000.02,0000.36,0000.00,20.2,26.9,,00.0,0640.4,31.0
2021-12-01T11:12:00Z,00000200,01000000,0001.03,-000.06,-000.04,0000.42,0000.07,-000.00,-000.07,-000.30,0000.59,20.2,26.9,,00.0,0640.4,31.0
2021-12-01T11:13:00Z,00000200,01000000,0001.27,0000.13,-000.01,0000.23,0000.56,0000.21,0000.09,-000.04,-000.60,20.1,26.9,,00.0,0640.4,31.0
2021-12-01T11:14:00Z,00000200,01000000,0000.27,0000.06,0000.11,0000.56,-000.28,0000.22,0000.15,0000.18,0000.05,20.0,26.8,,00.0,0640.4,30.9
2021-12-01T11:15:00Z,00000200,01000000,0001.15,-000.17,0000.34,0000.83,0000.39,0000.40,-000.22,0000.08,-000.01,19.9,26.7,,00.0,0640.3,30.9
2021-12-01T11:16:00Z,00000200,01000000,0000.69,0000.37,0000.68,0000.01,0000.07,0000.33,0000.39,0000.48,0000.16,19.8,26.7,,00.0,0640.3,30.9
2021-12-01T11:17:00Z,00000200,01000000,-000.09,0000.38,0000.27,-000.01,-000.00,0000.20,-000.08,-000.04,-000.07,19.8,26.6,,00.0,0640.3,30.9
2021-12-01T11:18:00Z,00000200,01000000,0000.70,0000.27,0000.24,-000.08,-000.15,0000.61,0000.33,0000.01,0000.46,19.8,26.6,,00.0,0640.3,30.9
2021-12-01T11:19:00Z,00000200,01000000,0000.01,0000.02,0000.15,0000.66,0000.09,-000.10,-000.04,0000.16,-000.11,19.8,26.6,,00.0,0640.4,30.9
2021-12-01T11:20:00Z,00000200,01000000,0000.30,0000.41,0000.21,0000.27,0000.32,0000.33,0000.07,0000.02,0000.20,19.9,26.6,,00.0,0640.4,30.9
2021-12-01T11:21:00Z,00000200,01000000,0000.31,0000.02,0000.24,0000.55,0000.07,0000.35,-000.03,-000.01,-000.18,19.9,26.6,,00.0,0640.3,30.9
2021-12-01T11:22:00Z,00000200,01000000,0000.11,0000.46,0000.09,0000.17,0000.18,-000.02,0000.43,-000.15,0000.11,19.9,26.6,,00.0,0640.3,30.9
2021-12-01T11:23:00Z,00000200,01000000,-000.26,0000.06,0000.08,0000.72,0000.27,0000.25,-000.15,-000.02,-000.06,20.0,26.6,,00.0,0640.3,30.9
2021-12-01T11:24:00Z,00000200,01000000,0000.63,0000.02,-000.04,0000.24,0000.20,0000.63,0000.09,0000.30,0000.23,20.0,26.6,,00.0,0640.3,31.0
2021-12-01T11:25:00Z,00000200,01000000,0000.86,-000.15,0000.30,-000.07,0000.23,0000.65,-000.14,-000.00,0000.07,20.0,26.6,,00.0,0640.4,31.0
2021-12-01T11:26:00Z,00000200,01000000,0000.32,-000.01,0000.04,-000.12,0000.03,-000.06,0000.20,0000.19,0000.40,20.1,26.6,,00.0,0640.4,31.0
2021-12-01T11:27:00Z,00000200,01000000,0000.23,0000.42,0000.04,0000.46,0000.29,0000.04,-000.11,-000.06,-000.43,20.2,26.6,,00.0,0640.4,31.0
2021-12-01T11:28:00Z,00000200,01000000,0000.38,0000.29,0000.14,0000.19,-000.17,0000.37,0000.33,0000.13,0000.07,20.2,26.6,,00.0,0640.4,31.0
2021-12-01T11:29:00Z,00000200,01000000,-000.05,-000.18,0000.06,0000.27,-000.06,0000.07,-000.14,0000.21,-000.29,20.3,26.6,,00.0,0640.4,31.0
2021-12-01T11:30:00Z,00000200,01000000,0000.66,0000.11,-000.28,0000.22,0000.00,0000.01,0000.23,-000.47,0000.35,20.3,26.7,,00.0,0640.4,31.0
2021-12-01T11:31:00Z,00000200,01000000,0000.67,0000.08,0000.17,0000.20,0000.05,0000.42,-000.13,0000.17,0000.01,20.3,26.7,,00.0,0640.4,31.0
2021-12-01T11:32:00Z,00000200,01000000,0000.53,0000.13,0000.25,-000.45,0000.11,0000.57,0000.26,0000.38,0000.12,20.3,26.7,,00.0,0640.4,31.0
2021-12-01T11:33:00Z,00000200,01000000,0000.06,-000.16,-000.22,-000.21,0000.17,0000.25,-000.03,0000.14,0000.19,20.3,26.7,,00.0,0640.5,31.0
2021-12-01T11:34:00Z,00000200,01000000,0000.24,-000.30,0000.45,0000.52,0000.12,-000.09,0000.16,0000.03,-000.14,20.4,26.7,,00.0,0640.5,31.0
2021-12-01T11:35:00Z,00000200,01000000,0000.26,0000.10,0000.27,-000.13,0000.45,0000.20,0000.02,0000.02,0000.00,20.4,26.7,,00.0,0640.5,31.0
2021-12-01T11:36:00Z,00000200,01000000,0000.43,0000.14,0000.10,-000.21,0000.12,0000.48,0000.17,-000.01,0000.31,20.5,26.7,,00.0,0640.4,31.0
2021-12-01T11:37:00Z,00000200,01000000,0000.87,-000.10,0000.39,0000.54,-000.15,0000.13,0000.06,0000.14,0000.22,20.5,26.7,,00.0,0640.4,31.0
2021-12-01T11:38:00Z,00000200,01000000,0000.62,-000.01,-000.11,-000.49,0000.04,0000.25,0000.12,0000.30,-000.14,20.5,26.8,,00.0,0640.4,31.0
2021-12-01T11:39:00Z,00000200,01000000,0000.37,0000.03,0000.31,-000.19,0000.08,0000.39,0000.04,-000.25,-000.13,20.5,26.8,,00.0,0640.4,31.0
2021-12-01T11:40:00Z,00000200,01000000,0000.19,0000.07,0000.15,0000.12,-000.02,0000.09,-000.16,-000.10,0000.28,20.6,26.8,,00.0,0640.4,31.0
2021-12-01T11:41:00Z,00000200,01000000,0000.22,-000.14,0000.02,-000.17,0000.18,0000.14,0000.20,0000.15,-000.12,20.6,26.8,,00.0,0640.3,31.0
2021-12-01T11:42:00Z,00000200,01000000,0000.80,0000.35,-000.06,0000.27,0000.12,0000.29,0000.12,0000.29,0000.34,20.6,26.8,,00.0,0640.2,31.0
2021-12-01T11:43:00Z,00000200,01000000,0000.51,0000.23,0000.30,0000.41,0000.12,0000.33,0000.23,0000.21,0000.00,20.6,26.8,,00.0,0640.2,31.0
2021-12-01T11:44:00Z,00000200,01000000,0000.65,0000.09,-000.03,0000.15,-000.14,-000.09,0000.01,0000.01,0000.13,20.7,26.8,,00.0,0640.2,31.0
2021-12-01T11:45:00Z,00000200,01000000,0000.34,0000.10,0000.32,0000.45,0000.13,0000.24,-000.19,-000.00,-000.03,20.7,26.9,,00.0,0640.2,31.0
2021-12-01T11:46:00Z,00000200,01000000,0000.97,-000.20,-000.02,-000.18,-000.08,0000.02,0000.12,0000.17,-000.01,20.7,26.9,,00.0,0640.2,31.0
2021-12-01T11:47:00Z,00000200,01000000,0000.48,0000.26,0000.07,0000.19,0000.50,-000.18,0000.09,-000.20,0000.07,20.7,26.9,,00.0,0640.2,31.0
2021-12-01T11:48:00Z,00000200,01000000,0001.44,-000.21,0000.49,0000.48,0000.09,0000.44,-000.08,-000.02,-000.06,20.7,26.9,,00.0,0640.2,31.0
2021-12-01T11:49:00Z,00000200,01000000,-000.20,0000.15,-000.12,0000.48,0000.16,0000.20,-000.06,0000.11,-000.07,20.8,26.9,,00.0,0640.2,31.0
2021-12-01T11:50:00Z,00000200,01000000,0000.25,-000.02,0000.39,0000.26,0000.09,0000.47,0000.28,0000.03,-000.15,20.8,27.0,,00.0,0640.2,31.0
2021-12-01T11:51:00Z,00000200,01000000,0000.49,0000.22,0000.14,-000.13,0000.33,0000.24,0000.10,-000.07,0000.25,20.8,27.0,,00.0,0640.1,31.0
2021-12-01T11:52:00Z,00000200,01000000,0000.76,-000.24,-000.19,0000.31,-000.04,0000.13,0000.02,0000.47,0000.18,20.8,27.0,,00.0,0640.1,31.0
2021-12-01T11:53:00Z,00000200,01000000,0001.28,0000.32,0000.33,-000.08,0000.32,0000.43,-000.14,-000.20,-000.11,20.8,27.0,,00.0,0640.0,31.0
2021-12-01T11:54:00Z,00000200,01000000,0000.92,0000.40,0000.16,0000.22,0000.31,0000.15,0000.36,-000.22,-000.01,20.9,27.0,,00.0,0640.1,31.0
2021-12-01T11:55:00Z,00000200,01000000,0000.53,-000.24,-000.02,0000.05,0000.06,0000.16,0000.04,0000.29,0000.35,20.9,27.0,,00.0,0640.0,31.0
2021-12-01T11:56:00Z,00000200,01000000,0000.58,-000.02,0000.09,0000.08,-000.03,0000.35,0000.21,0000.01,-000.16,20.9,27.1,,00.0,0640.0,31.0
2021-12-01T11:57:00Z,00000200,41000000,,,,,,,-000.45,-000.11,-000.14,20.9,27.1,,00.0,0640.0,31.1
2021-12-01T11:58:00Z,00000200,61000000,,,,,,,0000.07,-000.15,-000.17,20.6,27.2,,00.0,0639.1,31.1
2021-12-01T11:59:00Z,00000200,21000000,,,,,,,0000.12,0000.27,0000.43,20.6,27.3,,00.0,0639.1,31.1
